Regional Weather Roundup
Issued by NWS Cleveland, OH

Home | Current Version | Previous Version | Graphics & Text | Print | Product List | Glossary On
Versions: 1 2 3 4 5 6 7 8 9 10 11 12 13 14 15 16 17 18 19 20 21 22 23 24 25 26 27 28 29 30 31 32 33 34 35 36 37 38 39 40 41 42 43 44 45 46 47 48 49 50
896
ASUS41 KCLE 191810
RWRCLE
OHIO REGIONAL WEATHER ROUNDUP
NATIONAL WEATHER SERVICE CLEVELAND, OH
200 PM EDT SAT AUG 19 2017

NOTE: "FAIR" INDICATES FEW OR NO CLOUDS BELOW 12,000 FEET WITH NO
SIGNIFICANT WEATHER AND/OR OBSTRUCTIONS TO VISIBILITY.

OHZ001>008-015>018-024>027-034-035-043-044-191900-
   NORTHWEST OHIO

CITY           SKY/WX    TMP DP  RH WIND       PRES   REMARKS
DEFIANCE       MOSUNNY   78  61  55 NW12      29.95S
FINDLAY        SUNNY     81  60  48 W10       29.94S
TOLEDO EXPRESS MOSUNNY   78  61  55 NW7       29.93S
TOLEDO EXEC    MOSUNNY   81  64  56 W14       29.93S
LIMA           PTSUNNY   78  63  59 NW10      29.95F
$$

OHZ009>014-019>023-028>033-038-089-191900-
   NORTHEAST OHIO

CITY           SKY/WX    TMP DP  RH WIND       PRES   REMARKS
CLE-HOPKINS    PTSUNNY   80  61  52 W10       29.94S
CLE-LAKEFRONT  MOSUNNY   76  65  68 W10       29.93R
CUY CO. ARPT   PTSUNNY   75  64  69 W14       29.95R
LORAIN-ELYRIA  MOSUNNY   76  61  59 NW9       29.94S
ASHTABULA      PTSUNNY   73  66  78 NW8       29.93R
AKRON-CANTON   MOSUNNY   81  64  56 NW9       29.92F
WOOSTER        PTSUNNY   80  65  59 NW12      29.94S
MANSFIELD      MOSUNNY   79  65  62 NW9       29.95S
YOUNGSTOWN     PTSUNNY   79  61  53 W9G17     29.92S
$$

OHZ042-051>053-060>062-070>072-077>081-191900-
  SOUTHWEST OHIO

CITY           SKY/WX    TMP DP  RH WIND       PRES   REMARKS
CINC-COVINGTON PTSUNNY   83  69  62 SW5       29.96F
CINC-LUNKEN    PTSUNNY   84  68  58 S9        29.95F
HAMILTON       MOSUNNY   86  68  54 SW7       29.96F
DAYTON         MOSUNNY   83  65  54 VRB6      29.97F
WRIGHT-PAT AFB MOSUNNY   85  63  47 W6        29.95F
DAYTON GENERAL MOSUNNY   83  65  54 SW9       29.96F
WILMINGTON     MOSUNNY   84  67  56 W14       29.97F
$$

OHZ036-037-039>041-045>050-054>059-063>069-073>076-082>088-191900-
  CENTRAL AND SOUTHEAST OHIO

CITY           SKY/WX    TMP DP  RH WIND       PRES   REMARKS
COLUMBUS       MOSUNNY   84  67  56 SW13      29.93F
OSU AIRPORT    PTSUNNY   83  68  60 W14G26    29.94F
BOLTON FIELD   MOSUNNY   82  68  61 SW10G21   29.96F
RICKENBACK AFB PTSUNNY   83  65  55 W14       29.95S
NEWARK         MOSUNNY   83  65  54 SW14G21   29.93F
MARION         PTSUNNY   79  64  60 NW12      29.95S
LANCASTER      MOSUNNY   84  66  54 W10       29.96S
ZANESVILLE     SUNNY     85  65  51 W12       29.95S
NEW PHILLY     NOT AVBL
$$




USA.gov is the U.S. government's official web portal to all federal, state and local government web resources and services.